Simultaneous Nadir Overpasses (SNOs) Predictions

Prediction of SNOs between GOES-16 and NOAA-20 Satellite Orbit:

Table of predicted SNOs for the next 14.0 days since TLE Epoch: 10/5/2024
Index Date Time (GOES-16) GOES-16 Lat,Lon NOAA-20 Lat,Lon Distance(km) Time Diff (sec)
1 10/05/2024 06:18:23 0.06, -75.20 -0.35, -73.38 207.76 80
2 10/06/2024 18:37:41 -0.06, -75.21 -0.81, -78.70 396.54 80
3 10/07/2024 18:21:37 -0.06, -75.21 0.15, -74.16 119.57 80
4 10/09/2024 06:40:47 0.05, -75.21 0.99, -79.45 482.78 80
5 10/10/2024 06:24:43 0.05, -75.21 -0.04, -74.93 33.50 80
6 10/12/2024 18:25:16 -0.04, -75.23 -0.15, -75.70 53.71 80
7 10/13/2024 18:09:13 -0.04, -75.24 0.90, -71.19 463.21 80
8 10/15/2024 06:28:21 0.03, -75.25 0.31, -76.46 137.39 80
9 10/16/2024 06:12:17 0.03, -75.26 -0.69, -71.92 380.08 80
10 10/17/2024 18:31:33 -0.03, -75.29 -0.49, -77.23 221.84 80
11 10/18/2024 18:15:28 -0.04, -75.30 0.53, -72.70 295.99 80
